Mactan Cebu International Airport
RPVM : now visible

Airfield :











YOU CAN JOIN US ON...

 
LOGIN :

Register | Disclaimer

   EN    FR    IT 

 









Legend :    VFR   Marginal VFR   IFR   Intensive IFR   Very Intensive IFR
Visi :
Ceiling :
>= 8 km
>= 3000ft
5 to 8 km
1000 to 3000 ft
1500m to 5 km
500 to 1000 ft
800 to 1500m
200 to 500 ft
< 800m
< 200 ft
Symbols :   Thunderstorms  Fog  Heavy snow  Heavy precipitations  Wind > 20 kt






- Airport Elevation : 31 ft
- IATA code : CEB


RPVM - Mactan Cebu International

CURRENT METAR :
  • 192300Z 06005KT 030V090 9999 FEW020 30/24 Q1011 NOSIG RMK A2985

EXPIRED METARs :
  • 192200Z 09004KT 9999 FEW020 28/23 Q1010 NOSIG RMK A2983
  • 192100Z 07005KT 9999 FEW020 28/23 Q1010 NOSIG RMK A2983
  • 192000Z 07006KT 9999 FEW020 28/23 Q1010 NOSIG RMK A2983
  • 191900Z 08005KT 050V110 9999 FEW020 28/23 Q1010 NOSIG RMK A2983

TAF TAF RPVM
Valid from the 20 at 00:00 until the 21 at 06:00 UTC


192300Z 2000/2106 05007KT 9999 FEW020 SCT300
RPHI FIR / Asia



MET'MAP, your aeronautical weather chart ! - Copyright ORBIFLY December 2007 - Disclaimer

ORBIFLY MET'MAP TEAM :

Programming & Development : Alexandra Zaïnal
Original concept : Baudouin d'Aumeries
Technical & hardware support : Manuel Goepfert
Assistance : Marc-Olivier Méhu




SOURCES & CREDITS :

   NOAA       Earth
Advisory